When you browse on this site, cookies collect data to enhance your experience and personalize the content and advertising you see.
Visit our Privacy Policy to learn more. By continuing to use the site, you agree to this use of cookies and data.
  • In Österreich
  • Länderverzeichnis
  • Für 7 Tage
  • Wassertemperatur
  • Wetterkarte
  • News
  • Widgets
  • user-avatar
    Anmelden

    Stündliche Wetter Molango

    Heute, 19 September, Donnerstag

    Zeit Temperatur Niederschläge Wind Luftdruck Luftfeuchtigkeit
    00:00 +14°C° 0.1 mm 0 m/S 610 mmHg 95%
    01:00 +15°C° 0.1 mm 1 m/S 610 mmHg 95%
    02:00 +15°C° 0.1 mm 1 m/S 609 mmHg 94%
    03:00 +14°C° 0 mm 1 m/S 609 mmHg 93%
    04:00 +14°C° 0 mm 1 m/S 609 mmHg 93%
    05:00 +14°C° 0 mm 1 m/S 609 mmHg 92%
    06:00 +15°C° 0 mm 0 m/S 610 mmHg 87%
    07:00 +17°C° 0 mm 0 m/S 611 mmHg 82%
    08:00 +19°C° 0 mm 0 m/S 612 mmHg 77%
    09:00 +22°C° 0.4 mm 1 m/S 612 mmHg 75%
    10:00 +22°C° 0.4 mm 1 m/S 612 mmHg 72%
    11:00 +23°C° 0.4 mm 2 m/S 612 mmHg 70%
    12:00 +23°C° 0.8 mm 2 m/S 611 mmHg 74%
    13:00 +21°C° 0.8 mm 2 m/S 610 mmHg 78%
    14:00 +21°C° 0.8 mm 2 m/S 609 mmHg 81%
    15:00 +20°C° 0.2 mm 2 m/S 609 mmHg 85%
    16:00 +20°C° 0.2 mm 1 m/S 609 mmHg 88%
    17:00 +19°C° 0.2 mm 1 m/S 609 mmHg 92%
    18:00 +19°C° 0 mm 1 m/S 609 mmHg 94%
    19:00 +18°C° 0 mm 1 m/S 609 mmHg 96%
    20:00 +15°C° 0 mm 0 m/S 610 mmHg 98%
    21:00 +15°C° 0 mm 0 m/S 610 mmHg 97%
    22:00 +15°C° 0 mm 0 m/S 610 mmHg 96%
    23:00 +15°C° 0 mm 0 m/S 610 mmHg 96%

    Morgen, 20 September, Freitag

    Zeit Temperatur Niederschläge Wind Luftdruck Luftfeuchtigkeit
    00:00 +15°C° 0 mm 0 m/S 609 mmHg 95%
    01:00 +14°C° 0 mm 0 m/S 609 mmHg 94%
    02:00 +14°C° 0 mm 0 m/S 609 mmHg 94%
    03:00 +14°C° 0 mm 0 m/S 609 mmHg 93%
    04:00 +14°C° 0 mm 0 m/S 609 mmHg 93%
    05:00 +14°C° 0 mm 0 m/S 609 mmHg 93%
    06:00 +15°C° 0.1 mm 0 m/S 610 mmHg 90%
    07:00 +16°C° 0.1 mm 0 m/S 611 mmHg 86%
    08:00 +17°C° 0.1 mm 0 m/S 611 mmHg 82%
    09:00 +20°C° 0.1 mm 1 m/S 611 mmHg 76%
    10:00 +22°C° 0.1 mm 1 m/S 612 mmHg 70%
    11:00 +23°C° 0.1 mm 2 m/S 612 mmHg 64%
    12:00 +23°C° 0.3 mm 2 m/S 611 mmHg 69%
    13:00 +21°C° 0.3 mm 2 m/S 611 mmHg 73%
    14:00 +21°C° 0.3 mm 3 m/S 610 mmHg 77%
    15:00 +20°C° 0.3 mm 2 m/S 610 mmHg 81%
    16:00 +19°C° 0.3 mm 2 m/S 610 mmHg 86%
    17:00 +19°C° 0.3 mm 1 m/S 609 mmHg 90%
    18:00 +18°C° 0.2 mm 1 m/S 610 mmHg 93%
    19:00 +16°C° 0.2 mm 1 m/S 610 mmHg 95%
    20:00 +14°C° 0.2 mm 0 m/S 610 mmHg 98%
    21:00 +14°C° 0.1 mm 0 m/S 611 mmHg 97%
    22:00 +14°C° 0.1 mm 0 m/S 611 mmHg 96%
    23:00 +14°C° 0.1 mm 0 m/S 611 mmHg 95%

    übermorgen, 21 September, Samstag

    Zeit Temperatur Niederschläge Wind Luftdruck Luftfeuchtigkeit
    00:00 +14°C° 0 mm 0 m/S 611 mmHg 94%
    01:00 +14°C° 0 mm 0 m/S 610 mmHg 93%
    02:00 +13°C° 0 mm 0 m/S 610 mmHg 92%
    03:00 +13°C° 0 mm 0 m/S 610 mmHg 92%
    04:00 +12°C° 0 mm 0 m/S 610 mmHg 93%
    05:00 +12°C° 0 mm 0 m/S 610 mmHg 93%
    06:00 +14°C° 0 mm 0 m/S 611 mmHg 88%
    07:00 +15°C° 0 mm 0 m/S 612 mmHg 83%
    08:00 +17°C° 0 mm 0 m/S 613 mmHg 78%
    09:00 +20°C° 0 mm 1 m/S 613 mmHg 72%
    10:00 +22°C° 0 mm 1 m/S 613 mmHg 66%
    11:00 +23°C° 0 mm 2 m/S 613 mmHg 60%
    12:00 +21°C° 0.2 mm 2 m/S 612 mmHg 65%
    13:00 +21°C° 0.2 mm 2 m/S 611 mmHg 71%
    14:00 +20°C° 0.2 mm 3 m/S 610 mmHg 77%
    15:00 +19°C° 0.3 mm 2 m/S 610 mmHg 82%
    16:00 +18°C° 0.3 mm 2 m/S 610 mmHg 87%
    17:00 +18°C° 0.3 mm 1 m/S 610 mmHg 91%
    18:00 +16°C° 0.1 mm 1 m/S 610 mmHg 93%
    19:00 +16°C° 0.1 mm 1 m/S 610 mmHg 95%
    20:00 +14°C° 0.1 mm 0 m/S 610 mmHg 97%
    21:00 +14°C° 0 mm 0 m/S 610 mmHg 97%
    22:00 +13°C° 0 mm 0 m/S 610 mmHg 96%
    23:00 +13°C° 0 mm 0 m/S 610 mmHg 96%

    22 September, Sonntag

    Zeit Temperatur Niederschläge Wind Luftdruck Luftfeuchtigkeit
    00:00 +14°C° 0 mm 1 m/S 610 mmHg 95%
    01:00 +14°C° 0 mm 1 m/S 610 mmHg 95%
    02:00 +13°C° 0 mm 1 m/S 609 mmHg 94%
    03:00 +13°C° 0 mm 1 m/S 609 mmHg 94%
    04:00 +13°C° 0 mm 1 m/S 609 mmHg 94%
    05:00 +13°C° 0 mm 1 m/S 610 mmHg 94%
    06:00 +15°C° 0 mm 1 m/S 611 mmHg 87%
    07:00 +16°C° 0 mm 0 m/S 612 mmHg 81%
    08:00 +18°C° 0 mm 0 m/S 613 mmHg 74%
    09:00 +21°C° 0 mm 1 m/S 613 mmHg 69%
    10:00 +22°C° 0 mm 1 m/S 613 mmHg 64%
    11:00 +23°C° 0 mm 2 m/S 613 mmHg 59%
    12:00 +23°C° 0.1 mm 2 m/S 612 mmHg 66%
    13:00 +21°C° 0.1 mm 2 m/S 611 mmHg 72%
    14:00 +20°C° 0.1 mm 3 m/S 610 mmHg 78%
    15:00 +19°C° 0.3 mm 2 m/S 610 mmHg 83%
    16:00 +18°C° 0.3 mm 2 m/S 610 mmHg 88%
    17:00 +19°C° 0.3 mm 1 m/S 609 mmHg 92%
    18:00 +18°C° 0.1 mm 1 m/S 610 mmHg 94%
    19:00 +16°C° 0.1 mm 1 m/S 610 mmHg 95%
    20:00 +14°C° 0.1 mm 0 m/S 610 mmHg 97%
    21:00 +14°C° 0.1 mm 0 m/S 610 mmHg 97%
    22:00 +14°C° 0.1 mm 0 m/S 611 mmHg 97%
    23:00 +14°C° 0.1 mm 0 m/S 611 mmHg 96%

    23 September, Montag

    Zeit Temperatur Niederschläge Wind Luftdruck Luftfeuchtigkeit
    00:00 +13°C° 0 mm 0 m/S 610 mmHg 96%
    01:00 +13°C° 0 mm 0 m/S 610 mmHg 95%
    02:00 +13°C° 0 mm 0 m/S 609 mmHg 95%
    03:00 +13°C° 0 mm 0 m/S 609 mmHg 95%
    04:00 +13°C° 0 mm 1 m/S 610 mmHg 94%
    05:00 +13°C° 0 mm 1 m/S 610 mmHg 94%
    06:00 +14°C° 0 mm 0 m/S 611 mmHg 87%
    07:00 +16°C° 0 mm 0 m/S 612 mmHg 81%
    08:00 +18°C° 0 mm 0 m/S 613 mmHg 75%
    09:00 +21°C° 0 mm 1 m/S 613 mmHg 69%
    10:00 +22°C° 0 mm 1 m/S 613 mmHg 63%
    11:00 +24°C° 0 mm 2 m/S 613 mmHg 57%
    12:00 +23°C° 0.1 mm 2 m/S 612 mmHg 63%
    13:00 +21°C° 0.1 mm 2 m/S 611 mmHg 69%
    14:00 +21°C° 0.1 mm 3 m/S 610 mmHg 74%
    15:00 +20°C° 0.2 mm 2 m/S 610 mmHg 80%
    16:00 +19°C° 0.2 mm 2 m/S 610 mmHg 85%
    17:00 +19°C° 0.2 mm 1 m/S 610 mmHg 90%
    18:00 +18°C° 0 mm 1 m/S 610 mmHg 93%
    19:00 +16°C° 0 mm 1 m/S 610 mmHg 95%
    20:00 +14°C° 0 mm 0 m/S 610 mmHg 97%
    21:00 +13°C° 0 mm 0 m/S 610 mmHg 97%
    22:00 +13°C° 0 mm 0 m/S 610 mmHg 96%
    23:00 +14°C° 0 mm 1 m/S 610 mmHg 95%

    24 September, Dienstag

    Zeit Temperatur Niederschläge Wind Luftdruck Luftfeuchtigkeit
    00:00 +13°C° 0 mm 1 m/S 609 mmHg 95%
    01:00 +13°C° 0 mm 1 m/S 609 mmHg 94%
    02:00 +13°C° 0 mm 1 m/S 609 mmHg 93%
    03:00 +13°C° 0 mm 1 m/S 609 mmHg 93%
    04:00 +12°C° 0 mm 1 m/S 609 mmHg 93%
    05:00 +12°C° 0 mm 1 m/S 609 mmHg 92%
    06:00 +14°C° 0 mm 1 m/S 610 mmHg 84%
    07:00 +16°C° 0 mm 0 m/S 611 mmHg 76%
    08:00 +18°C° 0 mm 0 m/S 612 mmHg 68%
    09:00 +21°C° 0 mm 1 m/S 612 mmHg 64%
    10:00 +22°C° 0 mm 1 m/S 612 mmHg 60%
    11:00 +23°C° 0 mm 2 m/S 612 mmHg 57%
    12:00 +23°C° 0.1 mm 2 m/S 611 mmHg 63%
    13:00 +21°C° 0.1 mm 2 m/S 611 mmHg 69%
    14:00 +21°C° 0.1 mm 2 m/S 610 mmHg 75%
    15:00 +20°C° 0.2 mm 2 m/S 610 mmHg 80%
    16:00 +19°C° 0.2 mm 2 m/S 609 mmHg 86%
    17:00 +19°C° 0.2 mm 1 m/S 609 mmHg 91%
    18:00 +18°C° 0.2 mm 1 m/S 610 mmHg 93%
    19:00 +16°C° 0.2 mm 1 m/S 610 mmHg 95%
    20:00 +14°C° 0.2 mm 0 m/S 610 mmHg 98%
    21:00 +14°C° 0.1 mm 0 m/S 610 mmHg 97%
    22:00 +14°C° 0.1 mm 0 m/S 610 mmHg 97%
    23:00 +14°C° 0.1 mm 0 m/S 610 mmHg 96%
    Mehr zeigen